Location: El Álamo
(40.2307°N, 3.9945°W)
Time: 03:26:31
(UTC+00:00)

COSMOS 2406 - Pass Details

Date: 19 May 2025
Orbit: 845 x 859 km, 71.0° (Epoch: 23 June)

Event Time Altitude Azimuth Distance (km) Brightness Sun altitude
Exits shadow 23:41:08 34° 269° (W) 1,369 4.3 -29.3°
Maximum altitude 23:42:30 39° 300° (WNW) 1,253 4.3 -29.4°
Drops below altitude 10° 23:47:49 10° 9° (N) 2,485 6.5 -29.5°
Sets 23:50:27 0° 17° (NNE) 3,427 7.3 -29.6°
